Peoria, IL

7:01 PM CST on December 10, 2019 (GMT -0600)
Greater Peoria Regional

Weather History for KPIA - August, 2019

Change the Weather History Date:

Friday, August 9, 2019

  Actual Average Record
Temperature  
Mean Temperature 72 °F 74 °F  
Max Temperature 83 °F 84 °F 104 °F (1934)
Min Temperature 61 °F 65 °F 47 °F (1922)
Degree Days  
Heating Degree Days 0 0  
Month to date heating degree days 0 0  
Since 1 June heating degree days 5 19  
Since 1 July heating degree days 0 1  
Cooling Degree Days 7 10  
Month to date cooling degree days 94 90  
Year to date cooling degree days 806 721  
Since 1 June cooling degree days 725 640  
Growing Degree Days 22 (Base 50)    
Moisture  
Dew Point 55 °F    
Average Humidity 60    
Maximum Humidity 84    
Minimum Humidity 36    
Precipitation  
Precipitation 0.00 in 0.10 in 2.70 in (1902)
Month to date precipitation 0.29 0.94  
Year to date precipitation 29.97 22.65  
Snow  
Snow 0.00 in 0.00 in 0.00 in ()
Month to date snowfall 0.0 0.0  
Since 1 June snowfall 0.0 0.0  
Since 1 July snowfall 0.0 0.0  
Snow Depth 0.00 in    
Sea Level Pressure  
Sea Level Pressure 29.97 in    
Wind  
Wind Speed 3 mph (North)    
Max Wind Speed 9 mph    
Max Gust Speed 15 mph    
Visibility 10 miles    
Events      
T = Trace of Precipitation, MM = Missing Value Source: NWS Daily Summary

Daily Weather History Graph

Daily Weather History Graph

Search for Another Location

Airport or City:

Astronomy

Aug. 09, 2019 Rise Set
Actual Time 6:03 AM CDT 8:04 PM CDT
Civil Twilight 5:33 AM CDT 8:34 PM CDT
Nautical Twilight 4:56 AM CDT 9:11 PM CDT
Astronomical Twilight 4:16 AM CDT 9:50 PM CDT
Moon 3:46 PM CDT (8/9) 1:00 AM CDT (8/9)
Length of Visible Light 15h 01m
Length of Day
14h 01m
Waxing Gibbous, 70% of the Moon is Illuminated
Aug 9
Waxing Gibbous
Aug 15
Full
Aug 23
Last Quarter
Aug 30
New
Sep 5
First Quarter

Hourly Weather History & Observations

Time (CDT) Temp. Heat Index Dew Point Humidity Pressure Visibility Wind Dir Wind Speed Gust Speed Precip Events Conditions
12:54 AM 71.1 °F - 57.0 °F 61% 29.93 in 10.0 mi NNE 5.8 mph - N/A   Scattered Clouds
1:54 AM 70.0 °F - 55.9 °F 61% 29.93 in 10.0 mi NNE 5.8 mph - N/A   Mostly Cloudy
2:54 AM 68.0 °F - 55.0 °F 63% 29.94 in 10.0 mi Calm Calm - N/A   Clear
3:54 AM 64.0 °F - 57.0 °F 78% 29.94 in 10.0 mi NNW 3.5 mph - N/A   Clear
4:54 AM 62.1 °F - 55.9 °F 80% 29.95 in 10.0 mi NNW 3.5 mph - N/A   Clear
5:54 AM 61.0 °F - 55.0 °F 81% 29.96 in 10.0 mi Calm Calm - N/A   Clear
6:54 AM 61.0 °F - 55.0 °F 81% 29.99 in 10.0 mi Calm Calm - N/A   Clear
7:54 AM 68.0 °F - 57.0 °F 68% 30.00 in 10.0 mi NNW 3.5 mph - N/A   Clear
8:54 AM 72.0 °F - 54.0 °F 53% 30.00 in 10.0 mi North 5.8 mph - N/A   Clear
9:54 AM 75.9 °F - 55.9 °F 50% 30.00 in 10.0 mi North 5.8 mph - N/A   Clear
10:54 AM 78.1 °F - 52.0 °F 40% 30.01 in 10.0 mi North - - N/A   Clear
11:54 AM 79.0 °F - 54.0 °F 42% 30.00 in 10.0 mi Variable 3.5 mph - N/A   Clear
12:54 PM 81.0 °F 80.4 °F 53.1 °F 38% 29.99 in 10.0 mi Variable 5.8 mph - N/A   Clear
1:54 PM 81.0 °F - 52.0 °F 36% 29.98 in 10.0 mi NW 8.1 mph - N/A   Clear
2:54 PM 82.9 °F 81.8 °F 53.1 °F 36% 29.96 in 10.0 mi Variable 5.8 mph - N/A   Clear
3:54 PM 82.0 °F 81.3 °F 54.0 °F 38% 29.95 in 10.0 mi Variable 5.8 mph - N/A   Clear
4:54 PM 82.0 °F 81.2 °F 53.1 °F 37% 29.95 in 10.0 mi Variable 5.8 mph - N/A   Clear
5:54 PM 82.0 °F 81.3 °F 54.0 °F 38% 29.95 in 10.0 mi NNE 4.6 mph - N/A   Clear
6:54 PM 79.0 °F - 55.9 °F 45% 29.95 in 10.0 mi NNW 3.5 mph - N/A   Clear
7:54 PM 75.0 °F - 57.0 °F 53% 29.95 in 10.0 mi NNW 3.5 mph - N/A   Clear
8:54 PM 70.0 °F - 57.9 °F 65% 29.96 in 10.0 mi Calm Calm - N/A   Clear
9:54 PM 66.9 °F - 59.0 °F 76% 29.97 in 10.0 mi Calm Calm - N/A   Clear
10:54 PM 66.0 °F - 59.0 °F 78% 29.98 in 10.0 mi Calm Calm - N/A   Clear
11:54 PM 64.9 °F - 57.9 °F 78% 29.98 in 10.0 mi Calm Calm - N/A   Clear